ONEWEB-0214 (48788 NORAD) Tracking and Keplerian Element Data

This shows tracking and keplerian element data for the satellite.

Feedback or suggestion? Click here.




ElementValue
Catalog48788
NameONEWEB-0214
Epoch Orbit350
Epoch Day214.91667824
Epoch Year2021
RAAN254.7552
Inclination87.5387
Eccentricity0.0008322
Argument of Perigee53.6568
Mean Anonmoly304.1619
Mean Motion14.23313323
Decay Rate-0.013452
L11 48788U 21045X 21214.91667824 -.01345200 00000-0 -63865+0 0 9994
L22 48788 87.5387 254.7552 0008322 53.6568 304.1619 14.23313323 3500

Live tracking and technical data element details for ONEWEB-0214 (NORAD 48788). ONEWEB-0214 can be tracked NOW for your location showing map with azimuth and elevation plus other details from your city location.

Track the satellite on the map from your city or location and see movement details for azimuth, elevation, latitude, longitude, range, height, and movement on the map or in text.







IsCatalogInMostPopularTable: catalog: 48788, numindb: 18
Update: records affected: 1



GetName: 48788 ONEWEB-0214

Hit Count: updated at: Wed, 04 Aug 2021 00:00:09 GMT